Погода в Новодугино

Россия / Смоленская область     55°37′56″N   34°17′30″E
темп.,
°C
ветер,
м/с
пор.,
м/с
влажн.,
%
обл.,
%
осадки,
мм/ч
давл.,
гПа
погр.,
м
8 марта, пн
пн800:00−7зюз5139393 0.1 996495
03:00−7з6139291 0.6 996532
06:00−9зсз61385100 0.0 997665
09:00−9сз5129089 0.1 1001562
12:00−7сз578686 0.0 1004824
15:00−6сз578493 0.2 1006886
18:00−8ссз4989100 0.2 1009308
21:00−12ссз4892100 0.2 1012144
9 марта, вт
вт900:00−14ссз369686 0.0 1014111
03:00−16ссз349684 0.0 101673
06:00−18ссз339716 0.0 101736
09:00−17сз36969 0.0 1019184
12:00−12ссз358748 0.0 1019524
15:00−10ссз357972 0.0 1020868
18:00−13ссз228697 0.0 102020
21:00−16св118993 0.0 102220
10 марта, ср
ср1000:00−15вюв239396 0.0 102351
03:00−15в469698 0.4 1023230
06:00−16в4796100 0.6 1023252
09:00−17в4791100 0.9 1025275
12:00−14в4682100 0.0 1026371
15:00−12в467789 0.0 1026523
18:00−15всв23860 0.0 102727
21:00−19в33890 0.0 102921
11 марта, чт
чт1100:00−20вюв239029 0.0 103020
03:00−22вюв229326 0.0 103120
06:00−22юв239330 0.0 103120
09:00−20юв359116 0.0 1032141
12:00−14юв46840 0.0 1030317
15:00−11ююв58800 0.0 1029529
18:00−13ююв48840 0.0 1028178
21:00−16ююв511900 0.0 1028253
12 марта, пт
пт1200:00−17ююв512910 0.0 1027283
03:00−17ююв5129429 0.0 1025299
06:00−15ююв71394100 0.0 1022334
09:00−12ююв81787100 0.0 1019571
12:00−6ю101683100 0.0 10161043
15:00−4ю101793100 0.9 10121350
18:00−4ю91592100 0.6 10101057
21:00−3ю71590100 0.8 1008750